Regional Weather Roundup
Issued by NWS Cleveland, OH

Home | Current Version | Previous Version | Text Only | Print | Product List | Glossary Off
Versions: 1 2 3 4 5 6 7 8 9 10 11 12 13 14 15 16 17 18 19 20 21 22 23 24 25 26 27 28 29 30 31 32 33 34 35 36 37 38 39 40 41 42 43 44 45 46 47 48 49 50

000
ASUS41 KCLE 270010
RWRCLE
OHIO REGIONAL WEATHER ROUNDUP
NATIONAL WEATHER SERVICE CLEVELAND, OH
700 PM EST SUN FEB 26 2017

NOTE: "FAIR" INDICATES FEW OR NO CLOUDS BELOW 12,000 FEET WITH NO
SIGNIFICANT WEATHER AND/OR OBSTRUCTIONS TO VISIBILITY.

OHZ001>008-015>018-024>027-034-035-043-044-270100-
   NORTHWEST OHIO

CITY           SKY/WX    TMP DP  RH WIND       PRES   REMARKS
DEFIANCE       CLEAR     39  20  46 SW10      30.06R
FINDLAY        PTCLDY    38  21  50 S13       30.09R
TOLEDO EXPRESS CLEAR     40  20  44 SW9G18    30.05R
TOLEDO EXEC    CLEAR     40  23  50 SW10      30.07R
LIMA           CLEAR     39  20  46 SW9       30.10R
$$

OHZ009>014-019>023-028>033-038-089-270100-
   NORTHEAST OHIO

CITY           SKY/WX    TMP DP  RH WIND       PRES   REMARKS
CLE-HOPKINS    PTCLDY    40  18  41 S15       30.12R
CLE-LAKEFRONT  CLEAR     40  18  41 S16G22    30.09R
CUY CO. ARPT   PTCLDY    39  19  45 SW16      30.10R
LORAIN-ELYRIA  PTCLDY    37  19  48 SW14      30.10R
ASHTABULA      CLOUDY    36  18  48 S12       30.09S
AKRON-CANTON   PTCLDY    36  19  50 SW12      30.13R
WOOSTER        CLEAR     36  20  52 SW10      30.13R
MANSFIELD      CLEAR     35  19  52 S12       30.11R WCI  27
YOUNGSTOWN     PTCLDY    35  17  47 S7        30.12R WCI  29
$$

OHZ042-051>053-060>062-070>072-077>081-270100-
  SOUTHWEST OHIO

CITY           SKY/WX    TMP DP  RH WIND       PRES   REMARKS
CINC-COVINGTON MOCLDY    42  16  34 S6        30.15S
CINC-LUNKEN    CLOUDY    43  20  39 S8        30.18R
HAMILTON       CLOUDY    45  16  31 S3        30.17R
DAYTON         CLOUDY    40  16  37 S8        30.13S
WRIGHT-PAT AFB CLOUDY    40  14  35 S9        30.13F
DAYTON GENERAL CLOUDY    43  15  32 S9        30.13S
WILMINGTON     PTCLDY    39  22  50 S8        30.15R
$$

OHZ036-037-039>041-045>050-054>059-063>069-073>076-082>088-270100-
  CENTRAL AND SOUTHEAST OHIO

CITY           SKY/WX    TMP DP  RH WIND       PRES   REMARKS
COLUMBUS       MOCLDY    43  18  36 S7        30.16R
OSU AIRPORT    CLEAR     40  19  43 S10       30.15R
BOLTON FIELD   CLEAR     37  21  52 S8        30.16S
RICKENBACK AFB PTCLDY    38  20  49 S8        30.17R
NEWARK         CLEAR     38  19  46 SW6       30.16R
MARION         CLEAR     37  19  48 SW10      30.13R
LANCASTER      CLEAR     41  18  39 S5        30.18R
ZANESVILLE     CLEAR     40  13  33 SW6       30.18R
NEW PHILLY     NOT AVBL
$$




USA.gov is the U.S. government's official web portal to all federal, state and local government web resources and services.